{"data":{"norad_id":63577,"epoch":"2026-09-20T14:00:55.973952Z","epoch_age_seconds":145266,"freshness":"FRESH","line1":"1 63577U 25076J   26263.58398118  .00010464  00000+0  38912-3 0  9990","line2":"2 63577  43.0004 301.3236 0001378 268.5871  91.4823 15.27590412 81636","mean_motion":15.27590412,"eccentricity":0.0001378,"inclination_deg":43.0004,"raan_deg":301.3236,"arg_perigee_deg":268.5871,"mean_anomaly_deg":91.4823,"bstar":0.00038912,"rev_number":8163,"period_min":94.266106194963,"perigee_km":482.07245179521,"apogee_km":483.96338609087,"semimajor_km":6861.154918943,"source":"CELESTRAK","updated_at":"2026-09-21T09:00:35.046121Z"}}